FW7087 Weather Reports


time (UTC)temp
C
wind
direction
speed
KPH
gust
KPH
rain 1hr
cm
rain 24hr
cm
rain mn
cm
humidity
%
barometer
mb
20260505180004 27 170 0.0 9.7 0.00 0.00 0.00 79 1009.1
20260505174003 27 116 3.2 19.3 0.00 0.00 0.00 77 1009.1
20260505173004 27 170 6.4 14.5 0.00 0.00 0.00 78 1009.1
20260505172004 27 163 14.5 17.7 0.00 0.00 0.00 78 1009.1
20260505171004 26 163 0.0 14.5 0.00 0.00 0.00 80 1009.3
20260505170004 26 158 0.0 16.1 0.00 0.00 0.00 82 1009.4
20260505165003 26 170 0.0 16.1 0.00 0.00 0.00 81 1009.4
20260505164003 26 136 6.4 11.3 0.00 0.00 0.00 81 1009.3
20260505163004 26 68 0.0 12.9 0.00 0.00 0.00 82 1009.5
20260505162003 25 164 3.2 9.7 0.00 0.00 0.00 82 1009.6
20260505161004 25 169 6.4 12.9 0.00 0.00 0.00 83 1009.6
20260505152003 24 129 0.0 12.9 0.00 0.00 0.00 84 1009.2
20260505151003 24 167 0.0 8.0 0.00 0.00 0.00 85 1009.3
20260505125004 22 175 0.0 4.8 0.00 0.00 0.00 89 1009.2
20260505124003 22 175 0.0 8.0 0.00 0.00 0.00 89 1008.8
20260505123004 22 175 8.0 9.7 0.00 0.00 0.00 89 1008.5
20260505122004 22 175 0.0 14.5 0.00 0.00 0.00 89 1008.5
20260505114004 21 2 0.0 4.8 0.00 0.00 0.00 89 1008.5
20260505113005 21 149 8.0 8.0 0.00 0.00 0.00 89 1008.3
20260505111005 21 154 1.6 9.7 0.00 0.00 0.00 89 1008.5
20260505102004 21 2 4.8 8.0 0.00 0.00 0.00 89 1008.4
20260505100004 21 175 0.0 6.4 0.00 0.00 0.00 89 1008.7
20260505095004 21 175 0.0 6.4 0.00 0.00 0.00 89 1008.7
20260505094004 21 45 0.0 6.4 0.00 0.00 0.00 88 1008.6
20260505093004 21 166 0.0 6.4 0.00 0.00 0.00 89 1008.6
20260505092004 21 166 0.0 8.0 0.00 0.00 0.00 88 1008.8
20260505091004 21 166 0.0 9.7 0.00 0.00 0.00 88 1009.0
20260505090004 21 163 0.0 1.6 0.00 0.00 0.00 88 1008.9
20260505083005 21 166 0.0 4.8 0.00 0.00 0.00 87 1009.1
20260505082004 21 166 0.0 8.0 0.00 0.00 0.00 87 1009.3
20260505081004 21 166 0.0 6.4 0.00 0.00 0.00 87 1009.2
20260505080004 21 166 6.4 9.7 0.00 0.00 0.00 86 1009.3
20260505075004 21 168 0.0 0.0 0.00 0.00 0.00 86 1009.4
20260505074004 21 168 0.0 6.4 0.00 0.00 0.00 86 1009.4
20260505073004 21 168 0.0 6.4 0.00 0.00 0.00 86 1009.5
20260505072004 21 168 0.0 0.0 0.00 0.00 0.00 85 1009.6
20260505071003 21 168 0.0 4.8 0.00 0.00 0.00 86 1009.9
20260505070004 21 168 0.0 8.0 0.00 0.00 0.00 85 1010.0
20260505064004 21 168 3.2 8.0 0.00 0.00 0.00 84 1010.0
20260505063004 21 168 8.0 8.0 0.00 0.00 0.00 84 1010.0
20260505062004 21 167 0.0 9.7 0.00 0.00 0.00 84 1010.1
20260505061004 21 167 0.0 12.9 0.00 0.00 0.00 83 1010.3
20260505060004 21 139 0.0 8.0 0.00 0.00 0.00 83 1010.3
20260505055003 21 146 0.0 4.8 0.00 0.00 0.00 83 1010.3
20260505054004 21 23 0.0 16.1 0.00 0.00 0.00 82 1010.2
20260505053004 22 32 0.0 8.0 0.00 0.00 0.00 82 1010.5
20260505052003 22 170 0.0 8.0 0.00 0.00 0.00 82 1010.4
20260505051003 22 196 0.0 8.0 0.00 0.00 0.00 81 1010.7
20260505041003 22 358 0.0 12.9 0.00 0.00 0.00 79 1010.5
20260505040005 22 359 0.0 11.3 0.00 0.00 0.00 78 1010.6
20260505035003 22 164 9.7 14.5 0.00 0.00 0.00 78 1010.7
20260505034003 22 164 0.0 12.9 0.00 0.00 0.00 78 1010.8
20260505033004 22 168 0.0 14.5 0.00 0.00 0.00 77 1010.6
20260505032003 23 158 6.4 12.9 0.00 0.00 0.00 77 1010.8
20260505031003 23 3 0.0 12.9 0.00 0.00 0.00 76 1010.7
20260505030004 23 360 4.8 9.7 0.00 0.00 0.00 75 1010.6
20260505025004 23 64 0.0 8.0 0.00 0.00 0.00 76 1010.6
20260505024003 23 353 0.0 14.5 0.00 0.00 0.00 75 1010.4
20260505023003 23 28 3.2 20.9 0.00 0.00 0.00 75 1010.5
20260505022004 23 164 0.0 9.7 0.00 0.00 0.00 76 1010.3
20260505021003 23 311 0.0 9.7 0.00 0.00 0.00 75 1010.4
20260505020003 23 162 0.0 9.7 0.00 0.00 0.00 75 1010.4
20260505015004 23 160 0.0 12.9 0.00 0.00 0.00 75 1010.2
20260505014003 23 166 0.0 8.0 0.00 0.00 0.00 73 1010.1
20260505012004 24 175 0.0 12.9 0.00 0.00 0.00 71 1009.8
20260505011003 24 158 0.0 9.7 0.00 0.00 0.00 72 1009.8
20260505010005 25 22 0.0 8.0 0.00 0.00 0.00 71 1009.8
20260505005004 25 155 0.0 9.7 0.00 0.00 0.00 71 1010.0
20260505004004 25 155 0.0 12.9 0.00 0.00 0.00 70 1010.1
20260505003004 25 168 0.0 14.5 0.00 0.00 0.00 69 1010.0
20260505002005 25 155 3.2 12.9 0.00 0.00 0.00 69 1010.0
20260505001004 25 120 0.0 14.5 0.00 0.00 0.00 68 1010.0
20260504234004 26 169 9.7 12.9 0.00 0.00 0.00 65 1010.0
20260504232004 26 168 1.6 14.5 0.00 0.00 0.00 63 1010.2
20260504231004 26 85 0.0 12.9 0.00 0.00 0.00 63 1010.3
20260504230004 26 168 0.0 9.7 0.00 0.00 0.00 64 1010.5
20260504225004 26 143 6.4 16.1 0.00 0.00 0.00 62 1010.6
20260504224004 26 359 3.2 16.1 0.00 0.00 0.00 60 1010.5
20260504223004 26 141 0.0 8.0 0.00 0.00 0.00 63 1010.8
20260504222004 26 141 0.0 14.5 0.00 0.00 0.00 60 1010.8
20260504221004 26 141 0.0 9.7 0.00 0.00 0.00 61 1010.8
20260504220004 27 141 0.0 8.0 0.00 0.00 0.00 58 1011.1
20260504214005 27 144 1.6 8.0 0.00 0.00 0.00 60 1011.1
20260504213004 27 148 12.9 16.1 0.00 0.00 0.00 59 1011.4
20260504212004 27 144 0.0 8.0 0.00 0.00 0.00 59 1011.4
20260504211009 27 143 4.8 9.7 0.00 0.00 0.00 59 1011.7
20260504210004 27 135 0.0 16.1 0.00 0.00 0.00 58 1011.9
20260504205004 27 348 1.6 14.5 0.00 0.00 0.00 59 1011.8
20260504204004 27 156 0.0 9.7 0.00 0.00 0.00 60 1012.2
20260504203004 27 317 0.0 11.3 0.00 0.00 0.00 56 1012.4
20260504201004 27 164 0.0 12.9 0.00 0.00 0.00 56 1012.9
20260504200004 27 47 0.0 8.0 0.00 0.00 0.00 56 1012.9
20260504195004 27 175 3.2 8.0 0.00 0.00 0.00 55 1013.1
20260504194004 27 175 3.2 9.7 0.00 0.00 0.00 55 1013.3
20260504193004 27 76 0.0 4.8 0.00 0.00 0.00 56 1013.5
20260504192004 27 163 0.0 9.7 0.00 0.00 0.00 56 1013.6
20260504191005 27 128 1.6 9.7 0.00 0.00 0.00 59 1013.7
20260504190004 27 162 0.0 9.7 0.00 0.00 0.00 56 1013.9
20260504183004 27 161 1.6 8.0 0.00 0.00 0.00 55 1014.2
20260504182004 27 93 1.6 14.5 0.00 0.00 0.00 54 1014.3